This is the latest recevied weather packets stored in our database for station/object 9W8AKN-13. If no packets are shown the sender has not sent any weather packets the latest 10 day(s).
| Time | Temp. | Humidity | Pressure | Rain* | Wind** | Luminosity | Snow |
|---|---|---|---|---|---|---|---|
| 1787581356 | 30° C | 77% | 1011.8 hPa | - | - | - | - |
| 1787580456 | 30.56° C | 76% | 1011.7 hPa | - | - | - | - |
| 1787579556 | 30.56° C | 76% | 1011.6 hPa | - | - | - | - |
| 1787578655 | 30.56° C | 76% | 1011.6 hPa | - | - | - | - |
| 1787577755 | 30.56° C | 76% | 1011.5 hPa | - | - | - | - |
| 1787576855 | 30.56° C | 76% | 1011.2 hPa | - | - | - | - |
| 1787575955 | 30.56° C | 75% | 1011 hPa | - | - | - | - |
| 1787575055 | 31.11° C | 75% | 1010.9 hPa | - | - | - | - |
| 1787574155 | 31.11° C | 74% | 1010.6 hPa | - | - | - | - |
| 1787573255 | 31.11° C | 73% | 1010.3 hPa | - | - | - | - |
| 1787572355 | 31.11° C | 73% | 1010 hPa | - | - | - | - |
| 1787571455 | 31.11° C | 72% | 1009.8 hPa | - | - | - | - |
| 1787570554 | 31.11° C | 73% | 1009.6 hPa | - | - | - | - |
| 1787569654 | 31.67° C | 74% | 1009.6 hPa | - | - | - | - |
| 1787568754 | 31.67° C | 78% | 1009.4 hPa | - | - | - | - |
| 1787567854 | 31.67° C | 76% | 1009.6 hPa | - | - | - | - |
| 1787566954 | 31.67° C | 78% | 1009.6 hPa | - | - | - | - |
| 1787566054 | 31.67° C | 79% | 1009.2 hPa | - | - | - | - |
| 1787565154 | 32.22° C | 79% | 1008.8 hPa | - | - | - | - |
| 1787564254 | 32.22° C | 79% | 1008.5 hPa | - | - | - | - |
| 1787563354 | 32.22° C | 79% | 1008.2 hPa | - | - | - | - |
| 1787561549 | 32.22° C | 78% | 1007.9 hPa | - | - | - | - |
| 1787560649 | 32.22° C | 79% | 1007.9 hPa | - | - | - | - |
| 1787559749 | 32.22° C | 79% | 1007.9 hPa | - | - | - | - |
| 1787558849 | 32.22° C | 79% | 1007.9 hPa | - | - | - | - |
* Rain since midnight (hover to see other rain measurements)
** Current wind speed in m/s (hover to see current wind gust speed)